Regional Weather Roundup
Issued by NWS Raleigh/Durham, NC

Home | Current Version | Previous Version | Text Only | Print | Product List | Glossary On
Versions: 1 2 3 4 5 6 7 8 9 10 11 12 13 14 15 16 17 18 19 20 21 22 23 24 25 26 27 28 29 30 31 32 33 34 35 36 37 38 39 40 41 42 43 44 45 46 47 48 49
000
ASUS42 KRAH 250110
RWRRAH
NORTH CAROLINA WEATHER ROUNDUP
NATIONAL WEATHER SERVICE RALEIGH NC
800 PM EST WED DEC 24 2014

NOTE: "FAIR" INDICATES FEW OR NO CLOUDS BELOW 12,000 FEET WITH NO
SIGNIFICANT WEATHER AND/OR OBSTRUCTIONS TO VISIBILITY.

NCZ001-053-055-056-065-067-250200-
WESTERN NORTH CAROLINA

CITY           SKY/WX    TMP DP  RH WIND       PRES   REMARKS
ASHEVILLE      CLOUDY    54  51  90 S12       29.68R
JEFFERSON      CLOUDY    52  52 100 SE5       29.64R
MORGANTON      FOG       49  49 100 CALM      29.71S VSB 3/4
HICKORY        FOG       50  50 100 S8        29.67R VSB 1/2
RUTHERFORDTON  FOG       50  50 100 S7        29.69S VSB 3/4
MOUNT AIRY     LGT RAIN  50  48  93 CALM      29.68S
BOONE          CLOUDY    52  51  97 S6        29.66S
$$

NCZ021-022-025-041-071-084-088-250200-
CENTRAL NORTH CAROLINA

CITY           SKY/WX    TMP DP  RH WIND       PRES   REMARKS
CHARLOTTE      CLOUDY    59  57  93 S12       29.68R
GREENSBORO     CLOUDY    61  61 100 S12       29.64F
WINSTON-SALEM  FOG       51  50  96 SW3       29.66F VSB 1/4
RALEIGH-DURHAM CLOUDY    64  60  87 SW10      29.70R
FORT BRAGG     CLOUDY    66  63  89 SW10      29.71R
FAYETTEVILLE   CLOUDY    66  63  90 SW12      29.72R
BURLINGTON     CLOUDY    65  61  87 S12G18    29.65S
LAURINBURG     CLOUDY    65  63  93 S10       29.72F
$$

NCZ011-015-027-028-043-044-047-080-103-250200-
NORTHEASTERN NORTH CAROLINA

CITY           SKY/WX    TMP DP  RH WIND       PRES   REMARKS
ROCKY MT-WILSO CLOUDY    66  62  87 S8        29.69F
GREENVILLE     CLOUDY    68  63  83 S14G20    29.77S
WASHINGTON     MOCLDY    66  62  88 S6        29.76S
ELIZABETH CITY CLOUDY    70  62  76 S14       29.75S
MANTEO         CLOUDY    61  61 100 S15       29.80S
CAPE HATTERAS  MOCLDY    60  60 100 SW8       29.84F FOG
$$

NCZ078-087-090-091-093-098-101-250200-
SOUTHEASTERN NORTH CAROLINA

CITY           SKY/WX    TMP DP  RH WIND       PRES   REMARKS
LUMBERTON      CLOUDY    67  62  84 SW9       29.73R
GOLDSBORO      CLOUDY    68  66  94 S17G24    29.70F
KINSTON        CLOUDY    68  63  83 S13G21    29.75F
KENANSVILLE    LGT RAIN  66  63  90 S3        29.76F
NEW BERN       MOCLDY    68  62  81 S8        29.80S
CHERRY POINT   MOCLDY    65  62  90 S7        29.81S
BEAUFORT       CLOUDY    64  64 100 S7        29.82F
JACKSONVILLE   LGT RAIN  67  65  93 SW9G26    29.79S FOG
WILMINGTON     LGT RAIN  67  65  93 S8        29.78F
$$



USA.gov is the U.S. government's official web portal to all federal, state and local government web resources and services.